Regional Weather Roundup
Issued by NWS Newport/Morehead, NC

Current Version | Previous Version | Text Only | Print | Product List | Glossary On
Versions: 1 2 3 4 5 6 7 8 9 10 11 12 13 14 15 16 17 18 19 20 21 22 23 24 25 26 27 28 29 30 31 32 33 34 35 36 37 38 39 40 41 42 43 44 45 46 47 48 49 50
000
ASUS42 KMHX 290122
RWRMHX
WEATHER ROUNDUP FOR EASTERN NORTH CAROLINA
NATIONAL WEATHER SERVICE NEWPORT/MOREHEAD CITY NC
800 PM EST SUN DEC 28 2014

NOTE: "FAIR" INDICATES FEW OR NO CLOUDS BELOW 12,000 FEET
WITH NO SIGNIFICANT WEATHER AND/OR OBSTRUCTIONS TO VISIBILITY

NCZ015>017-031-032-045>047-102-103-290200-
NORTH COAST

CITY           SKY/WX    TMP DP  RH WIND       PRES   REMARKS
EDENTON        CLOUDY    59  57  94 SW3       30.05S
ELIZABETH CITY CLOUDY    63  58  83 SW7       30.05S
KITTY HAWK     CLOUDY    58  57  97 W3        30.04F FOG
MANTEO         CLOUDY    57  55  94 CALM      30.06S

$$

NCZ045>047-081-094-103-104-290200-
CENTRAL COAST

CITY           SKY/WX    TMP DP  RH WIND       PRES   REMARKS
FRISCO         PTCLDY    56  55  97 W3        30.06R
SWANQUARTER      N/A     61 N/A N/A NW3       30.03S

$$

NCZ095-097-098-100-101-290200-
SOUTHERN COAST

CITY           SKY/WX    TMP DP  RH WIND       PRES   REMARKS
BEAUFORT       CLOUDY    62  60  93 NW9       30.07R
CEDAR ISLAND     N/A     59 N/A N/A SW2       30.09S
JACKSONVILLE   CLOUDY    65  58  78 NE5       30.05S
PINEY ISLAND   CLOUDY    61  57  87 W3        30.06R
WILMINGTON     CLOUDY    64  61  90 SW3       30.06R


$$

NCZ011>013-027>030-043-044-078>080-089-090>093-098-290200-
COASTAL PLAIN

CITY           SKY/WX    TMP DP  RH WIND       PRES   REMARKS
AHOSKIE        CLOUDY    57  56  96 CALM      30.04S
CLINTON        CLOUDY    61  61 100 CALM      30.06F FOG
ELIZABETHTOWN  CLOUDY    64  61  89 CALM      30.06S
GOLDSBORO      FOG       59  59 100 S2        30.04S VSB 3/4
GREENVILLE     CLOUDY    57  57 100 CALM      30.07S FOG
HAVELOCK       MOCLDY    63  58  83 CALM      30.07R
KENANSVILLE    CLOUDY    60  60  97 CALM      30.08R FOG
KINSTON        DRIZZLE   61  59  94 CALM      30.07S
NEW BERN       CLOUDY    64  57  78 CALM      30.07R
RICHLANDS      CLOUDY    63  57  82 CALM      30.06F
ROCKY MOUNT    CLOUDY    59  57  93 SW3       30.05S
WASHINGTON     CLOUDY    59  58  97 CALM      30.06F
WHITEVILLE     CLOUDY    67  62  82 CALM      30.06S

$$

AMZ130-135-150-152-154-156-158-170-250-252-270-ANZ085-086-088-633-658-670-290200-
MARINE OBSERVATIONS

STATION/POSITION TIME  TEMP    WIND        PRES    WAVE   SWELL
                       AIR SEA DIR/SP/G            HT/PER HT/PER
                 (UTC) (F)     (DEG/KT/KT) (MB)    (FT/S) (FT/S)
CHESAPEAKE LIGHT 0100   58     280/  9/ 10 1017.5
64 E VA BEACH    0100   56 53  280/ 10/ 12 1017.4    4/13   3/13
DUCK             0100   58 50  280/ 10/ 12 1016.6
2 E DUCK         0100      49                N/A     2/14   2/14
10 NE DUCK       0100      50                N/A     2/11   2/11
OREGON INLET     0100   55 53  200/  2/  3 1017.7
13E OREGON INLT  0100      55                N/A     2/13   2/13
HATTERAS CG      0100   59 56  250/  2/  3 1018.2
DIAMOND BUOY     0100   70                 1017.7    4/13
17 S OCRACOKE    NOT AVBL
CAPE LOOKOUT     0100   64     230/  9/ 14 1017.8
BEAUFORT LAB     0100   62 56  290/  6/ 10 1017.1
30 SE NEW RIVER  0100   63 60  230/  8/ 10 1018.5    2/13   2/13
5 SE WRIGHTSVLE  NOT AVBL
225 S CAPE HAT   0028   74 74  220/ 16/ 19 1021.0    5/13   3/13
41 SE CHARLESTON 0100   72 73  210/ 14/ 16 1018.2    3/13   2/13

$$



USA.gov is the U.S. government's official web portal to all federal, state and local government web resources and services.